User: anonymous   Login
Location: �perlecques
(50.8057°N, 2.1521°E)
Time: 14:44:38
(UTC+00:00)
Language:

FO-29 - Orbit

View from above orbital plane
View from above orbital plane
View from above satellite
View from above satellite

Ground track
Ground track

The orbit data is extracted from the following two-line orbital elements,

1 24278U 96046B   23079.68138890  .00000001  00000-0  40282-4 0  9993
2 24278  98.5223  70.3233 0349203 286.5559  69.7500 13.53138828312963
Epoch (UTC): 20 March 2023 16:21:12
Eccentricity: 0.0349203
inclination: 98.5223°
perigee height: 801 km
apogee height: 1320 km
right ascension of ascending node: 70.3233°
argument of perigee: 286.5559°
revolutions per day: 13.53138828
mean anomaly at epoch: 69.7500°
orbit number at epoch: 31296

The dashed part of the orbit path shows where the satellite is in the earth's shadow,  

DLR